Tracking 28126 objects as of 1-Oct-2023
HD Live streaming from Space Station
objects crossing your sky now

STARLINK-5674

Track STARLINK-5674 now!
10-day predictions
STARLINK-5674 is classified as:


NORAD ID: 55465
Int'l Code: 2023-015S
Perigee: 565.2 km
Apogee: 567.2 km
Inclination: 43.0 °
Period: 95.8 minutes
Semi major axis: 6937 km
RCS: Unknown
Launch date: February 2, 2023
Source: United States (US)
Launch site: AIR FORCE EASTERN TEST RANGE (AFETR)
Your satellite tracking list
Your tracking list is empty




NASA's NSSDC Master Catalog

Two Line Element Set (TLE):
1 55465U 23015S   23273.74368510  .00003716  00000-0  29001-3 0  9999
2 55465  43.0022 127.0518 0001409 265.8307  94.2375 15.02534483 36551
Source of the keplerian elements: AFSPC